Cloud_Cover
78 28 5 80 64 98 100 100 100 8 5 3 0 0 0 0 3 0 20 84 96 40 5 5 65 90 74 23 13 45 5 5 16 5 37 83 33 5 61 30 73 100 100
63 54 0 1 5 5 12 84 73 4 11 0 0 0 0 2 3 0 5 40 75 40 5 29 22 69 50 7 21 28 5 65 5 12 45 93 100 100 68 92 100 94 67
31 60 9 0 0 2 4 4 1 0 0 0 0 0 0 2 0 2 82 72 5 5 26 16 29 34 32 5 40 100 92 50 5 38 100 100 100 81 100 100 100 100 100
28 34 32 0 1 6 0 4 3 1 1 0 0 0 0 5 0 94 32 32 5 8 6 13 6 10 14 45 100 100 100 100 68 36 66 98 38 6 95 80 13 42 53
5 20 7 5 5 2 5 4 0 0 5 0 3 2 8 0 5 5 6 9 5 6 11 6 98 17 9 65 100 100 100 100 100 100 100 99 69 5 79 26 30 22 52
0 11 2 4 5 5 5 1 3 17 0 11 2 0 4 100 98 3 5 4 5 5 25 66 44 49 27 91 32 100 100 100 100 100 100 100 100 100 100 100 100 31 23
2 5 5 5 5 5 5 9 0 5 0 2 4 5 43 95 5 4 3 11 3 8 42 5 40 85 16 5 27 100 100 100 100 100 100 100 89 83 90 91 100 19 5
0 5 5 5 5 5 5 10 5 5 5 5 5 5 9 2 9 5 4 5 3 0 7 8 100 26 91 52 59 72 92 100 100 100 100 100 100 100 53 34 70 41 44
0 4 5 5 5 28 11 6 9 21 5 29 6 8 5 5 6 5 2 2 2 1 5 3 37 82 100 100 28 100 75 99 100 100 100 100 100 42 100 100 98 62 12
0 0 5 3 4 5 5 12 7 5 11 5 51 89 5 6 99 6 10 49 3 1 3 0 61 99 100 74 11 87 100 78 30 32 49 100 100 100 100 100 100 100 15
0 0 0 0 5 6 5 5 5 5 57 67 23 35 30 100 39 100 13 7 22 5 5 6 49 98 100 100 24 6 20 5 6 51 35 98 47 100 98 96 100 100 100
0 0 0 3 5 20 5 9 11 24 61 90 100 91 100 96 8 42 90 56 100 99 5 5 14 10 73 94 99 98 7 13 7 37 32 61 89 100 100 100 100 100 100
0 0 3 5 5 5 5 5 5 5 5 72 78 98 63 48 91 79 58 100 98 99 85 14 29 18 50 100 99 41 62 55 50 40 28 90 100 100 100 98 96 100 100
0 0 5 5 5 5 5 8 94 99 62 5 6 22 100 100 66 15 5 12 22 8 14 22 98 96 40 26 34 95 63 44 76 98 79 39 81 100 100 100 100 98 100
0 1 0 1 4 4 5 7 9 14 10 16 8 9 47 17 9 22 5 5 7 10 29 28 89 100 89 16 7 36 95 100 100 96 78 99 95 97 100 100 100 100 100
0 0 4 1 5 5 5 26 68 19 14 82 80 100 96 35 15 26 71 80 79 91 60 79 60 21 10 70 69 64 80 100 100 100 100 76 94 100 100 100 100 100 100
4 4 0 5 5 2 5 5 5 5 9 58 72 99 90 97 28 98 98 37 94 100 40 60 63 36 8 37 25 66 76 100 100 100 100 100 100 100 98 100 100 100 100
0 4 1 0 6 10 11 42 29 9 6 17 35 99 61 50 100 100 98 88 82 99 63 70 25 86 50 11 5 57 97 98 100 100 100 100 100 100 100 70 100 100 100
0 0 0 12 100 100 99 65 100 94 71 70 88 100 100 99 100 100 100 100 99 44 91 68 57 23 100 11 13 34 100 100 100 100 99 100 100 100 98 100 100 97 96
0 0 0 0 47 71 60 37 39 89 100 100 100 100 100 100 100 100 84 97 70 17 8 62 33 66 98 88 28 53 28 48 100 100 100 98 81 100 100 100 79 50 100
20 1 0 0 0 5 100 70 35 95 20 64 100 74 67 85 58 70 100 84 88 85 68 18 95 100 100 100 100 61 16 28 74 100 100 99 100 100 93 100 97 73 79
95 100 0 0 0 52 100 100 100 100 100 100 100 49 73 88 100 100 100 100 100 90 100 100 99 80 95 98 100 100 94 54 78 100 100 100 100 88 100 100 95 90 85
87 100 100 5 16 100 100 90 73 100 100 100 100 100 100 72 94 97 100 100 100 100 59 99 100 82 54 98 100 100 100 99 100 100 99 100 92 62 64 100 100 69 91
55 56 5 24 93 100 100 100 100 100 99 100 100 100 100 100 100 100 100 100 69 80 54 60 36 28 82 78 66 100 56 99 100 97 100 100 97 100 80 80 98 56 48
5 10 5 58 100 96 100 62 88 95 100 78 45 100 100 100 100 100 100 100 100 100 100 100 96 87 44 35 86 48 100 55 85 100 100 100 100 87 95 100 100 100 90
5 7 5 100 100 100 100 35 26 75 81 78 54 100 100 87 100 100 100 98 85 100 100 100 100 100 100 100 100 82 98 100 100 96 99 91 100 100 100 100 100 83 91